Regional Weather Roundup
Issued by NWS Jackson, KY

Home | Current Version | Previous Version | Graphics & Text | Print | Product List | Glossary On
Versions: 1 2 3 4 5 6 7 8 9 10 11 12 13 14 15 16 17 18 19 20 21 22 23 24 25 26 27
000
ASUS43 KJKL 240110
RWRJKL

EAST KENTUCKY HOURLY WEATHER ROUNDUP
NATIONAL WEATHER SERVICE JACKSON KY
900 PM EDT FRI JUN 23 2017

NOTE: "FAIR" INDICATES FEW OR NO CLOUDS BELOW 12,000 FEET WITH
NO SIGNIFICANT WEATHER AND/OR OBSTRUCTIONS TO VISIBILITY.

* THESE REPORTS ARE NOT UNDER NWS QUALITY CONTROL AND MAY NOT
  REPORT WEATHER SUCH AS PRECIPITATION AND FOG.

KYZ079-080-083-085-087-088-110-112-115-119-120-240200
...EASTERN KENTUCKY...

CITY           SKY/WX    TMP DP  RH WIND       PRES   REMARKS
JACKSON        LGT RAIN  72  69  90 VRB5      29.68F
LONDON         LGT RAIN  68  65  90 W14       29.78R
SOMERSET*      CLOUDY    66  66 100 W9G17     29.83R
MONTICELLO*    CLOUDY    70  67  90 W15       29.85R
WILLIAMSBURG*  CLOUDY    68  68 100 W8        29.82R
MIDDLESBORO*   RAIN      74  72  93 SW15G24   29.77R
HARLAN APT*    CLOUDY    72  68  88 S5        29.76S VSB 1
PIKE CO APT*   LGT RAIN  72  71  99 S3        29.72S
BIG SANDY APT* RAIN      74  71  91 S8G17     29.72R
MOREHEAD APT*  HVY RAIN  66  64  94 N8        29.76R VSB 3/4
$$

KYZ035-036-041-042-044-050-067-078-099-240200
...CENTRAL KENTUCKY...

CITY           SKY/WX    TMP DP  RH WIND       PRES   REMARKS
MT STERLING*   RAIN      66  66 100 E13       29.74S
FLEMING/MASON* RAIN      65  65 100 CALM      29.77R
DANVILLE*      DRIZZLE   68  68 100 NW7       29.80R
LEXINGTON      LGT RAIN  68  65  90 NW3       29.77R
FRANKFORT      CLOUDY    70  66  87 CALM      29.75R
LOUISVILLE     CLOUDY    75  73  93 SW6       29.75R
LEBANON*         N/A    N/A N/A N/A MISG        N/A
GLASGOW*       PTCLDY    73  73 100 SW5       29.81R
BOWLING GREEN  MOCLDY    77  75  93 SW3       29.80R
$$

KYZ091>093-OHZ055-061-077-WVZ005-015-034-035-042-240200
...SOUTHERN OHIO/WEST VIRGINIA...

CITY           SKY/WX    TMP DP  RH WIND       PRES   REMARKS
COVINGTON      CLOUDY    69  68  96 CALM      29.73R
COLUMBUS       LGT RAIN  69  69 100 W3        29.70F
DAYTON         DRIZZLE   68  67  96 SW6       29.72F
WILMINGTON     LGT RAIN  66  66 100 CALM      29.73R
HUNTINGTON     HVY RAIN  67  65  93 CALM      29.74R VSB 1
CHARLESTON     RAIN      73  71  93 CALM      29.70F FOG
PINEVILLE*     LGT RAIN  72  69  90 MISG      29.79F
BECKLEY        CLOUDY    76  61  59 S8        29.79F
BLUEFIELD      CLOUDY    75  62  64 S12G23    29.83F
LOGAN CO APT*  DRIZZLE   73  72  94 CALM      29.72F
$$

VAZ002-007-008-TNZ017-027-036-066-071-240200
...SOUTHWEST VIRGINIA/EAST TENNESSEE...

CITY           SKY/WX    TMP DP  RH WIND       PRES   REMARKS
WISE*          DRIZZLE   70  64  83 S12G17    29.84R
JONESVILLE*    LGT RAIN  72  70  94 SW8       29.81S
ABINGDON*      CLOUDY    82  61  47 SW13G21   29.80F
BRISTOL        CLOUDY    83  63  50 S14G25    29.76F
MORRISTOWN*    CLOUDY    79  70  73 W20G30    29.80R
SEVIERVILLE*   MOCLDY    77  68  73 SW13      29.81R
KNOXVILLE      LGT RAIN  73  71  93 SW24G36   29.83R FOG
LAFOLLETTE*    MOCLDY    73  70  88 VRB6G21   29.85R FOG
OAK RIDGE      LGT RAIN  74  71  91 VRB6G18   29.85R FOG
CROSSVILLE     CLOUDY    71  69  93 W10G17    29.89R
NASHVILLE      MOCLDY    79  74  84 SW7       29.82R
$$

...KEY TO REMARKS...
VSB - VISIBILITY IN MILES
WCI - WIND CHILL INDEX
HX  - HEAT INDEX

$$




USA.gov is the U.S. government's official web portal to all federal, state and local government web resources and services.